Time,TemperatureF,DewpointF,PressureIn,WindDirection,WindDirectionDegrees,WindSpeedMPH,WindSpeedGustMPH,Humidity,HourlyPrecipIn,Conditions,Clouds,dailyrainin,SoftwareType,DateUTC
2013-09-04 00:02:00,63.0,45.6,30.06,ESE,112,0.0,0.0,53,0.00,,,0.00,VWS V14.01,2013-09-04 05:02:00,
2013-09-04 00:07:00,62.8,45.9,30.06,ESE,112,0.0,0.0,54,0.00,,,0.00,VWS V14.01,2013-09-04 05:07:00,
2013-09-04 00:12:00,62.6,45.7,30.06,ESE,112,0.0,0.0,54,0.00,,,0.00,VWS V14.01,2013-09-04 05:12:00,
2013-09-04 00:17:00,62.4,46.1,30.06,ESE,112,0.0,0.0,55,0.00,,,0.00,VWS V14.01,2013-09-04 05:17:00,
2013-09-04 00:22:00,62.4,46.5,30.06,ESE,112,0.0,0.0,56,0.00,,,0.00,VWS V14.01,2013-09-04 05:22:00,
2013-09-04 00:27:00,62.6,46.2,30.06,ESE,112,0.0,0.0,55,0.00,,,0.00,VWS V14.01,2013-09-04 05:27:00,
2013-09-04 00:32:00,62.8,46.4,30.06,ESE,112,0.0,0.0,55,0.00,,,0.00,VWS V14.01,2013-09-04 05:32:00,
2013-09-04 00:37:00,62.6,46.2,30.06,ESE,112,0.0,0.0,55,0.00,,,0.00,VWS V14.01,2013-09-04 05:37:00,
2013-09-04 00:42:00,62.4,46.5,30.06,ESE,112,0.0,0.0,56,0.00,,,0.00,VWS V14.01,2013-09-04 05:42:00,
2013-09-04 00:47:00,62.2,46.4,30.06,ESE,112,0.0,0.0,56,0.00,,,0.00,VWS V14.01,2013-09-04 05:47:00,
2013-09-04 00:52:00,61.9,46.5,30.06,ESE,112,0.0,0.0,57,0.00,,,0.00,VWS V14.01,2013-09-04 05:52:00,
2013-09-04 00:56:00,61.9,47.0,30.06,ESE,112,0.0,0.0,58,0.00,,,0.00,VWS V14.01,2013-09-04 05:56:00,
2013-09-04 01:02:00,61.3,46.9,30.06,ESE,112,0.0,0.0,59,0.00,,,0.00,VWS V14.01,2013-09-04 06:02:00,
2013-09-04 01:06:00,61.3,47.3,30.06,ESE,112,0.0,0.0,60,0.00,,,0.00,VWS V14.01,2013-09-04 06:06:00,
2013-09-04 01:11:00,61.3,47.3,30.06,ESE,112,0.0,0.0,60,0.00,,,0.00,VWS V14.01,2013-09-04 06:11:00,
2013-09-04 01:16:00,61.2,47.2,30.06,ESE,112,0.0,0.0,60,0.00,,,0.00,VWS V14.01,2013-09-04 06:16:00,
2013-09-04 01:21:00,61.2,47.2,30.06,ESE,112,0.0,0.0,60,0.00,,,0.00,VWS V14.01,2013-09-04 06:21:00,
2013-09-04 01:26:00,61.0,47.5,30.06,ESE,112,0.0,0.0,61,0.00,,,0.00,VWS V14.01,2013-09-04 06:26:00,
2013-09-04 01:31:00,61.0,47.9,30.06,ESE,112,0.0,0.0,62,0.00,,,0.00,VWS V14.01,2013-09-04 06:31:00,
2013-09-04 01:36:00,61.0,47.9,30.06,ESE,112,0.0,0.0,62,0.00,,,0.00,VWS V14.01,2013-09-04 06:36:00,
2013-09-04 01:41:00,61.2,48.5,30.06,ESE,112,0.0,0.0,63,0.00,,,0.00,VWS V14.01,2013-09-04 06:41:00,
2013-09-04 01:46:00,61.2,48.5,30.06,ESE,112,0.0,0.0,63,0.00,,,0.00,VWS V14.01,2013-09-04 06:46:00,
2013-09-04 01:51:00,61.2,48.9,30.06,ESE,112,0.0,0.0,64,0.00,,,0.00,VWS V14.01,2013-09-04 06:51:00,
2013-09-04 01:56:00,61.2,48.9,30.06,ESE,112,0.0,0.0,64,0.00,,,0.00,VWS V14.01,2013-09-04 06:56:00,
2013-09-04 02:01:00,61.0,49.2,30.06,ESE,112,0.0,0.0,65,0.00,,,0.00,VWS V14.01,2013-09-04 07:01:00,
2013-09-04 02:06:00,61.0,49.2,30.09,ESE,112,0.0,0.0,65,0.00,,,0.00,VWS V14.01,2013-09-04 07:06:00,
2013-09-04 02:11:00,60.6,48.8,30.09,ESE,112,0.0,0.0,65,0.00,,,0.00,VWS V14.01,2013-09-04 07:11:00,
2013-09-04 02:16:00,60.4,48.6,30.09,ESE,112,0.0,0.0,65,0.00,,,0.00,VWS V14.01,2013-09-04 07:16:00,
2013-09-04 02:21:00,60.3,48.9,30.09,ESE,112,0.0,0.0,66,0.00,,,0.00,VWS V14.01,2013-09-04 07:21:00,
2013-09-04 02:26:00,59.9,48.9,30.09,ESE,112,0.0,0.0,67,0.00,,,0.00,VWS V14.01,2013-09-04 07:26:00,
2013-09-04 02:31:00,59.7,49.2,30.09,ESE,112,0.0,0.0,68,0.00,,,0.00,VWS V14.01,2013-09-04 07:31:00,
2013-09-04 02:36:00,59.5,49.4,30.09,ESE,112,0.0,0.0,69,0.00,,,0.00,VWS V14.01,2013-09-04 07:36:00,
2013-09-04 02:41:00,59.4,49.6,30.09,ESE,112,0.0,0.0,70,0.00,,,0.00,VWS V14.01,2013-09-04 07:41:00,
2013-09-04 02:46:00,59.2,49.8,30.09,ESE,112,0.0,0.0,71,0.00,,,0.00,VWS V14.01,2013-09-04 07:46:00,
2013-09-04 02:51:00,59.0,49.6,30.09,ESE,112,0.0,0.0,71,0.00,,,0.00,VWS V14.01,2013-09-04 07:51:00,
2013-09-04 02:57:00,59.0,49.6,30.09,ESE,112,0.0,0.0,71,0.00,,,0.00,VWS V14.01,2013-09-04 07:57:00,
2013-09-04 03:02:00,58.8,50.2,30.09,ESE,112,0.0,0.0,73,0.00,,,0.00,VWS V14.01,2013-09-04 08:02:00,
2013-09-04 03:07:00,58.8,50.2,30.09,ESE,112,0.0,0.0,73,0.00,,,0.00,VWS V14.01,2013-09-04 08:07:00,
2013-09-04 03:12:00,58.6,50.4,30.09,ESE,112,0.0,0.0,74,0.00,,,0.00,VWS V14.01,2013-09-04 08:12:00,
2013-09-04 03:17:00,58.5,50.2,30.09,ESE,112,0.0,0.0,74,0.00,,,0.00,VWS V14.01,2013-09-04 08:17:00,
2013-09-04 03:22:00,58.5,50.2,30.09,ESE,112,0.0,0.0,74,0.00,,,0.00,VWS V14.01,2013-09-04 08:22:00,
2013-09-04 03:27:00,58.3,50.0,30.09,ESE,112,0.0,0.0,74,0.00,,,0.00,VWS V14.01,2013-09-04 08:27:00,
2013-09-04 03:32:00,58.1,49.9,30.09,ESE,112,0.0,0.0,74,0.00,,,0.00,VWS V14.01,2013-09-04 08:32:00,
2013-09-04 03:37:00,58.1,49.9,30.09,ESE,112,0.0,0.0,74,0.00,,,0.00,VWS V14.01,2013-09-04 08:37:00,
2013-09-04 03:42:00,57.9,50.0,30.09,ESE,112,0.0,0.0,75,0.00,,,0.00,VWS V14.01,2013-09-04 08:42:00,
2013-09-04 03:47:00,57.9,50.0,30.09,ESE,112,0.0,0.0,75,0.00,,,0.00,VWS V14.01,2013-09-04 08:47:00,
2013-09-04 03:52:00,57.7,49.9,30.09,ESE,112,0.0,0.0,75,0.00,,,0.00,VWS V14.01,2013-09-04 08:52:00,
2013-09-04 03:57:00,57.7,49.9,30.09,ESE,112,0.0,0.0,75,0.00,,,0.00,VWS V14.01,2013-09-04 08:57:00,
2013-09-04 04:02:00,57.6,50.1,30.09,ESE,112,0.0,0.0,76,0.00,,,0.00,VWS V14.01,2013-09-04 09:02:00,
2013-09-04 04:07:00,57.7,50.2,30.09,ESE,112,0.0,0.0,76,0.00,,,0.00,VWS V14.01,2013-09-04 09:07:00,
2013-09-04 04:12:00,57.6,50.4,30.09,ESE,112,0.0,0.0,77,0.00,,,0.00,VWS V14.01,2013-09-04 09:12:00,
2013-09-04 04:17:00,57.4,50.6,30.09,ESE,112,0.0,0.0,78,0.00,,,0.00,VWS V14.01,2013-09-04 09:17:00,
2013-09-04 04:22:00,57.4,50.6,30.09,ESE,112,0.0,0.0,78,0.00,,,0.00,VWS V14.01,2013-09-04 09:22:00,
2013-09-04 04:27:00,57.2,50.4,30.09,ESE,112,0.0,0.0,78,0.00,,,0.00,VWS V14.01,2013-09-04 09:27:00,
2013-09-04 04:32:00,57.2,50.4,30.09,ESE,112,0.0,0.0,78,0.00,,,0.00,VWS V14.01,2013-09-04 09:32:00,
2013-09-04 04:37:00,57.2,50.4,30.09,ESE,112,0.0,0.0,78,0.00,,,0.00,VWS V14.01,2013-09-04 09:37:00,
2013-09-04 04:42:00,57.0,50.6,30.09,ESE,112,0.0,0.0,79,0.00,,,0.00,VWS V14.01,2013-09-04 09:42:00,
2013-09-04 04:47:00,57.0,50.6,30.09,ESE,112,0.0,0.0,79,0.00,,,0.00,VWS V14.01,2013-09-04 09:47:00,
2013-09-04 04:52:00,56.8,50.7,30.09,ESE,112,0.0,0.0,80,0.00,,,0.00,VWS V14.01,2013-09-04 09:52:00,
2013-09-04 04:57:00,56.8,50.7,30.09,ESE,112,0.0,0.0,80,0.00,,,0.00,VWS V14.01,2013-09-04 09:57:00,
2013-09-04 05:02:00,56.8,50.7,30.09,ESE,112,0.0,0.0,80,0.00,,,0.00,VWS V14.01,2013-09-04 10:02:00,
2013-09-04 05:07:00,56.8,51.1,30.09,ESE,112,0.0,0.0,81,0.00,,,0.00,VWS V14.01,2013-09-04 10:07:00,
2013-09-04 05:12:00,56.8,51.1,30.09,ESE,112,0.0,0.0,81,0.00,,,0.00,VWS V14.01,2013-09-04 10:12:00,
2013-09-04 05:17:00,56.7,50.9,30.09,ESE,112,0.0,0.0,81,0.00,,,0.00,VWS V14.01,2013-09-04 10:17:00,
2013-09-04 05:22:00,56.7,50.9,30.09,ESE,112,0.0,0.0,81,0.00,,,0.00,VWS V14.01,2013-09-04 10:22:00,
2013-09-04 05:27:00,56.7,50.9,30.09,ESE,112,0.0,0.0,81,0.00,,,0.00,VWS V14.01,2013-09-04 10:27:00,
2013-09-04 05:32:00,56.7,50.9,30.09,ESE,112,0.0,0.0,81,0.00,,,0.00,VWS V14.01,2013-09-04 10:32:00,
2013-09-04 05:37:00,56.7,51.2,30.12,ESE,112,0.0,0.0,82,0.00,,,0.00,VWS V14.01,2013-09-04 10:37:00,
2013-09-04 05:42:00,56.7,51.2,30.12,ESE,112,0.0,0.0,82,0.00,,,0.00,VWS V14.01,2013-09-04 10:42:00,
2013-09-04 05:47:00,56.5,51.1,30.12,ESE,112,0.0,0.0,82,0.00,,,0.00,VWS V14.01,2013-09-04 10:47:00,
2013-09-04 05:52:00,56.5,51.1,30.09,ESE,112,0.0,0.0,82,0.00,,,0.00,VWS V14.01,2013-09-04 10:52:00,
2013-09-04 05:57:00,56.5,51.1,30.09,ESE,112,0.0,0.0,82,0.00,,,0.00,VWS V14.01,2013-09-04 10:57:00,
2013-09-04 06:02:00,56.5,51.4,30.09,ESE,112,0.0,0.0,83,0.00,,,0.00,VWS V14.01,2013-09-04 11:02:00,
2013-09-04 06:07:00,56.5,51.4,30.09,ESE,112,0.0,0.0,83,0.00,,,0.00,VWS V14.01,2013-09-04 11:07:00,
2013-09-04 06:12:00,56.5,51.4,30.09,ESE,112,0.0,0.0,83,0.00,,,0.00,VWS V14.01,2013-09-04 11:12:00,
2013-09-04 06:17:00,56.5,51.4,30.09,ESE,112,0.0,0.0,83,0.00,,,0.00,VWS V14.01,2013-09-04 11:17:00,
2013-09-04 06:22:00,56.5,51.4,30.12,ESE,112,0.0,0.0,83,0.00,,,0.00,VWS V14.01,2013-09-04 11:22:00,
2013-09-04 06:27:00,56.3,51.2,30.12,ESE,112,0.0,0.0,83,0.00,,,0.00,VWS V14.01,2013-09-04 11:27:00,
2013-09-04 06:32:00,56.3,51.5,30.12,ESE,112,0.0,0.0,84,0.00,,,0.00,VWS V14.01,2013-09-04 11:32:00,
2013-09-04 06:37:00,56.3,51.5,30.12,ESE,112,0.0,0.0,84,0.00,,,0.00,VWS V14.01,2013-09-04 11:37:00,
2013-09-04 06:42:00,56.3,51.5,30.12,ESE,112,0.0,0.0,84,0.00,,,0.00,VWS V14.01,2013-09-04 11:42:00,
2013-09-04 06:47:00,56.3,51.5,30.12,ESE,112,0.0,0.0,84,0.00,,,0.00,VWS V14.01,2013-09-04 11:47:00,
2013-09-04 06:52:00,56.3,51.5,30.12,ESE,112,0.0,0.0,84,0.00,,,0.00,VWS V14.01,2013-09-04 11:52:00,
2013-09-04 06:57:00,56.3,51.5,30.12,ESE,112,0.0,0.0,84,0.00,,,0.00,VWS V14.01,2013-09-04 11:57:00,
2013-09-04 07:02:00,56.5,51.7,30.12,ESE,112,0.0,0.0,84,0.00,,,0.00,VWS V14.01,2013-09-04 12:02:00,
2013-09-04 07:07:00,56.7,52.2,30.12,ESE,112,0.0,0.0,85,0.00,,,0.00,VWS V14.01,2013-09-04 12:07:00,
2013-09-04 07:12:00,56.8,52.4,30.12,ESE,112,0.0,0.0,85,0.00,,,0.00,VWS V14.01,2013-09-04 12:12:00,
2013-09-04 07:17:00,57.0,52.6,30.12,ESE,112,0.0,0.0,85,0.00,,,0.00,VWS V14.01,2013-09-04 12:17:00,
2013-09-04 07:22:00,57.4,52.9,30.12,ESE,112,0.0,0.0,85,0.00,,,0.00,VWS V14.01,2013-09-04 12:22:00,
2013-09-04 07:27:00,57.6,53.1,30.12,ESE,112,0.0,0.0,85,0.00,,,0.00,VWS V14.01,2013-09-04 12:27:00,
2013-09-04 07:32:00,57.9,53.8,30.12,ESE,112,0.0,0.0,86,0.00,,,0.00,VWS V14.01,2013-09-04 12:32:00,
2013-09-04 07:37:00,58.5,54.3,30.12,ESE,112,0.0,0.0,86,0.00,,,0.00,VWS V14.01,2013-09-04 12:37:00,
2013-09-04 07:42:00,59.0,54.8,30.12,ESE,112,0.0,0.0,86,0.00,,,0.00,VWS V14.01,2013-09-04 12:42:00,
2013-09-04 07:47:00,59.5,55.3,30.12,ESE,112,0.0,0.0,86,0.00,,,0.00,VWS V14.01,2013-09-04 12:47:00,
2013-09-04 07:52:00,60.4,56.2,30.12,ESE,112,0.0,0.0,86,0.00,,,0.00,VWS V14.01,2013-09-04 12:52:00,
2013-09-04 07:57:00,62.1,57.5,30.12,ESE,112,0.0,0.0,85,0.00,,,0.00,VWS V14.01,2013-09-04 12:57:00,
2013-09-04 08:02:00,63.0,57.4,30.12,ESE,112,0.0,0.0,82,0.00,,,0.00,VWS V14.01,2013-09-04 13:02:00,
2013-09-04 08:07:00,64.8,58.5,30.15,ESE,112,0.0,0.0,80,0.00,,,0.00,VWS V14.01,2013-09-04 13:07:00,
2013-09-04 08:12:00,66.0,56.7,30.15,ESE,112,0.0,0.0,72,0.00,,,0.00,VWS V14.01,2013-09-04 13:12:00,
2013-09-04 08:17:00,66.7,55.8,30.15,ESE,112,0.0,0.0,68,0.00,,,0.00,VWS V14.01,2013-09-04 13:17:00,
2013-09-04 08:22:00,68.2,52.4,30.15,ESE,112,0.0,0.0,57,0.00,,,0.00,VWS V14.01,2013-09-04 13:22:00,
2013-09-04 08:27:00,69.1,51.8,30.15,ESE,112,0.0,0.0,54,0.00,,,0.00,VWS V14.01,2013-09-04 13:27:00,
2013-09-04 08:32:00,70.2,51.2,30.15,ESE,112,0.0,0.0,51,0.00,,,0.00,VWS V14.01,2013-09-04 13:32:00,
2013-09-04 08:37:00,70.3,50.8,30.15,ESE,112,0.0,0.0,50,0.00,,,0.00,VWS V14.01,2013-09-04 13:37:00,
2013-09-04 08:42:00,70.7,50.6,30.15,ESE,112,0.0,0.0,49,0.00,,,0.00,VWS V14.01,2013-09-04 13:42:00,
2013-09-04 08:51:00,70.9,50.8,30.15,ESE,112,0.0,0.0,49,0.00,,,0.00,VWS V14.01,2013-09-04 13:51:00,
2013-09-04 08:56:00,71.4,51.8,30.15,ESE,112,0.0,0.0,50,0.00,,,0.00,VWS V14.01,2013-09-04 13:56:00,
2013-09-04 09:01:00,71.6,52.0,30.15,ESE,112,0.0,0.0,50,0.00,,,0.00,VWS V14.01,2013-09-04 14:01:00,
2013-09-04 09:06:00,72.3,52.7,30.15,ESE,112,0.0,0.0,50,0.00,,,0.00,VWS V14.01,2013-09-04 14:06:00,
2013-09-04 09:11:00,72.7,52.4,30.15,ESE,112,0.0,0.0,49,0.00,,,0.00,VWS V14.01,2013-09-04 14:11:00,
2013-09-04 09:16:00,72.7,52.4,30.15,ESE,112,0.0,0.0,49,0.00,,,0.00,VWS V14.01,2013-09-04 14:16:00,
2013-09-04 09:21:00,73.0,52.8,30.15,ESE,112,0.0,0.0,49,0.00,,,0.00,VWS V14.01,2013-09-04 14:21:00,
2013-09-04 09:26:00,73.4,52.5,30.15,ESE,112,0.0,0.0,48,0.00,,,0.00,VWS V14.01,2013-09-04 14:26:00,
2013-09-04 09:31:00,74.3,53.4,30.15,ESE,112,0.0,0.0,48,0.00,,,0.00,VWS V14.01,2013-09-04 14:31:00,
2013-09-04 09:36:00,75.4,53.8,30.15,ESE,112,0.0,0.0,47,0.00,,,0.00,VWS V14.01,2013-09-04 14:36:00,
2013-09-04 09:41:00,75.6,53.9,30.15,ESE,112,0.0,0.0,47,0.00,,,0.00,VWS V14.01,2013-09-04 14:41:00,
2013-09-04 09:46:00,74.7,53.1,30.15,ESE,112,0.0,0.0,47,0.00,,,0.00,VWS V14.01,2013-09-04 14:46:00,
2013-09-04 09:51:00,74.5,53.5,30.15,ESE,112,0.0,0.0,48,0.00,,,0.00,VWS V14.01,2013-09-04 14:51:00,
2013-09-04 09:56:00,74.5,53.5,30.15,ESE,112,0.0,0.0,48,0.00,,,0.00,VWS V14.01,2013-09-04 14:56:00,
2013-09-04 10:01:00,74.8,53.8,30.15,ESE,112,0.0,0.0,48,0.00,,,0.00,VWS V14.01,2013-09-04 15:01:00,
2013-09-04 10:06:00,75.4,53.8,30.15,ESE,112,0.0,0.0,47,0.00,,,0.00,VWS V14.01,2013-09-04 15:06:00,
2013-09-04 10:11:00,75.4,53.2,30.15,SSW,202,0.0,0.0,46,0.00,,,0.00,VWS V14.01,2013-09-04 15:11:00,
2013-09-04 10:16:00,75.6,53.3,30.15,SSW,202,0.0,0.0,46,0.00,,,0.00,VWS V14.01,2013-09-04 15:16:00,
2013-09-04 10:21:00,75.9,53.1,30.15,SSW,202,0.0,0.0,45,0.00,,,0.00,VWS V14.01,2013-09-04 15:21:00,
2013-09-04 10:26:00,76.1,53.2,30.15,SSW,202,0.0,0.0,45,0.00,,,0.00,VWS V14.01,2013-09-04 15:26:00,
2013-09-04 10:31:00,76.1,53.2,30.15,SSW,202,0.0,0.0,45,0.00,,,0.00,VWS V14.01,2013-09-04 15:31:00,
2013-09-04 10:36:00,76.1,52.6,30.15,SSW,202,0.0,0.0,44,0.00,,,0.00,VWS V14.01,2013-09-04 15:36:00,
2013-09-04 10:41:00,76.3,52.8,30.15,SSW,202,0.0,0.0,44,0.00,,,0.00,VWS V14.01,2013-09-04 15:41:00,
2013-09-04 10:46:00,76.5,53.0,30.15,SSW,202,0.0,0.0,44,0.00,,,0.00,VWS V14.01,2013-09-04 15:46:00,
2013-09-04 10:51:00,76.6,52.5,30.15,SSW,202,0.0,0.0,43,0.00,,,0.00,VWS V14.01,2013-09-04 15:51:00,
2013-09-04 10:56:00,77.0,52.2,30.15,SSW,202,0.0,0.0,42,0.00,,,0.00,VWS V14.01,2013-09-04 15:56:00,
2013-09-04 11:01:00,77.2,52.3,30.15,SSW,202,0.0,0.0,42,0.00,,,0.00,VWS V14.01,2013-09-04 16:01:00,
2013-09-04 11:06:00,77.5,51.3,30.15,SSW,202,0.0,0.0,40,0.00,,,0.00,VWS V14.01,2013-09-04 16:06:00,
2013-09-04 11:11:00,77.7,52.2,30.15,SSW,202,0.0,0.0,41,0.00,,,0.00,VWS V14.01,2013-09-04 16:11:00,
2013-09-04 11:16:00,78.1,51.8,30.15,SSW,202,0.0,0.0,40,0.00,,,0.00,VWS V14.01,2013-09-04 16:16:00,
2013-09-04 11:21:00,78.1,49.7,30.15,SSW,202,0.0,0.0,37,0.00,,,0.00,VWS V14.01,2013-09-04 16:21:00,
2013-09-04 11:26:00,78.3,49.9,30.15,SSW,202,0.0,0.0,37,0.00,,,0.00,VWS V14.01,2013-09-04 16:26:00,
2013-09-04 11:31:00,78.6,48.7,30.15,SSW,202,0.0,0.0,35,0.00,,,0.00,VWS V14.01,2013-09-04 16:31:00,
2013-09-04 11:36:00,79.0,49.0,30.15,SSW,202,0.0,0.0,35,0.00,,,0.00,VWS V14.01,2013-09-04 16:36:00,
2013-09-04 11:41:00,79.0,46.6,30.15,SSW,202,0.0,0.0,32,0.00,,,0.00,VWS V14.01,2013-09-04 16:41:00,
2013-09-04 11:46:00,79.2,46.0,30.15,SSW,202,0.0,0.0,31,0.00,,,0.00,VWS V14.01,2013-09-04 16:46:00,
2013-09-04 11:51:00,79.3,45.2,30.15,SSW,202,0.0,0.0,30,0.00,,,0.00,VWS V14.01,2013-09-04 16:51:00,
2013-09-04 11:56:00,79.5,45.4,30.15,WNW,292,0.0,0.0,30,0.00,,,0.00,VWS V14.01,2013-09-04 16:56:00,
2013-09-04 12:01:00,79.5,41.7,30.15,SW,225,0.0,0.0,26,0.00,,,0.00,VWS V14.01,2013-09-04 17:01:00,
2013-09-04 12:06:00,79.9,38.8,30.15,West,270,0.0,0.0,23,0.00,,,0.00,VWS V14.01,2013-09-04 17:06:00,
2013-09-04 12:11:00,80.1,37.8,30.15,SW,225,0.0,0.0,22,0.00,,,0.00,VWS V14.01,2013-09-04 17:11:00,
2013-09-04 12:16:00,80.2,38.0,30.15,SW,225,0.0,0.0,22,0.00,,,0.00,VWS V14.01,2013-09-04 17:16:00,
2013-09-04 12:21:00,80.2,36.8,30.15,SW,225,0.0,0.0,21,0.00,,,0.00,VWS V14.01,2013-09-04 17:21:00,
2013-09-04 12:26:00,80.6,35.9,30.15,SW,225,0.0,0.0,20,0.00,,,0.00,VWS V14.01,2013-09-04 17:26:00,
2013-09-04 12:31:00,81.3,36.5,30.15,SW,225,0.0,0.0,20,0.00,,,0.00,VWS V14.01,2013-09-04 17:31:00,
2013-09-04 12:36:00,81.0,34.9,30.15,NW,315,0.0,0.0,19,0.00,,,0.00,VWS V14.01,2013-09-04 17:36:00,
2013-09-04 12:41:00,81.3,35.2,30.15,NW,315,0.0,0.0,19,0.00,,,0.00,VWS V14.01,2013-09-04 17:41:00,
2013-09-04 12:46:00,81.7,35.5,30.15,NW,315,0.0,0.0,19,0.00,,,0.00,VWS V14.01,2013-09-04 17:46:00,
2013-09-04 12:51:00,81.7,35.5,30.15,NW,315,0.0,0.0,19,0.00,,,0.00,VWS V14.01,2013-09-04 17:51:00,
2013-09-04 12:56:00,81.9,32.8,30.15,NW,315,0.0,0.0,17,0.00,,,0.00,VWS V14.01,2013-09-04 17:56:00,
2013-09-04 13:01:00,82.4,31.8,30.15,NW,315,0.0,0.0,16,0.00,,,0.00,VWS V14.01,2013-09-04 18:01:00,
2013-09-04 13:06:00,82.4,31.8,30.15,NW,315,0.0,0.0,16,0.00,,,0.00,VWS V14.01,2013-09-04 18:06:00,
2013-09-04 13:11:00,82.4,31.8,30.15,NW,315,0.0,0.0,16,0.00,,,0.00,VWS V14.01,2013-09-04 18:11:00,
2013-09-04 13:16:00,82.4,31.8,30.15,NE,45,0.0,0.0,16,0.00,,,0.00,VWS V14.01,2013-09-04 18:16:00,
2013-09-04 13:21:00,82.4,28.5,30.15,NE,45,0.0,0.0,14,0.00,,,0.00,VWS V14.01,2013-09-04 18:21:00,
2013-09-04 13:27:00,82.6,31.9,30.15,NE,45,0.0,0.0,16,0.00,,,0.00,VWS V14.01,2013-09-04 18:27:00,
2013-09-04 13:32:00,83.1,29.0,30.15,NE,45,0.0,0.0,14,0.00,,,0.00,VWS V14.01,2013-09-04 18:32:00,
2013-09-04 13:37:00,82.9,28.9,30.15,NNW,338,0.0,0.0,14,0.00,,,0.00,VWS V14.01,2013-09-04 18:37:00,
2013-09-04 13:42:00,83.3,29.2,30.15,NW,315,0.0,0.0,14,0.00,,,0.00,VWS V14.01,2013-09-04 18:42:00,
2013-09-04 13:47:00,83.7,29.5,30.15,NW,315,0.0,0.0,14,0.00,,,0.00,VWS V14.01,2013-09-04 18:47:00,
2013-09-04 13:52:00,83.8,29.6,30.12,NW,315,0.0,0.0,14,0.00,,,0.00,VWS V14.01,2013-09-04 18:52:00,
2013-09-04 13:57:00,83.8,29.6,30.12,NW,315,0.0,0.0,14,0.00,,,0.00,VWS V14.01,2013-09-04 18:57:00,
2013-09-04 14:02:00,83.7,29.5,30.12,NW,315,0.0,0.0,14,0.00,,,0.00,VWS V14.01,2013-09-04 19:02:00,
2013-09-04 14:07:00,83.3,29.2,30.12,NW,315,0.0,0.0,14,0.00,,,0.00,VWS V14.01,2013-09-04 19:07:00,
2013-09-04 14:12:00,83.3,29.2,30.12,NW,315,0.0,0.0,14,0.00,,,0.00,VWS V14.01,2013-09-04 19:12:00,
2013-09-04 14:17:00,83.1,29.0,30.12,NW,315,0.0,0.0,14,0.00,,,0.00,VWS V14.01,2013-09-04 19:17:00,
2013-09-04 14:22:00,83.3,29.2,30.12,NW,315,0.0,0.0,14,0.00,,,0.00,VWS V14.01,2013-09-04 19:22:00,
2013-09-04 14:27:00,83.5,29.3,30.12,ENE,68,0.0,0.0,14,0.00,,,0.00,VWS V14.01,2013-09-04 19:27:00,
2013-09-04 14:32:00,84.0,29.8,30.12,NW,315,0.0,4.9,14,0.00,,,0.00,VWS V14.01,2013-09-04 19:32:00,
2013-09-04 14:37:00,83.8,29.6,30.12,NW,315,6.7,6.7,14,0.00,,,0.00,VWS V14.01,2013-09-04 19:37:00,
2013-09-04 14:42:00,83.8,29.6,30.12,NE,45,0.0,0.0,14,0.00,,,0.00,VWS V14.01,2013-09-04 19:42:00,
2013-09-04 14:47:00,84.0,29.8,30.12,ENE,68,0.0,0.0,14,0.00,,,0.00,VWS V14.01,2013-09-04 19:47:00,
2013-09-04 14:52:00,84.2,28.1,30.12,ESE,112,0.0,0.0,13,0.00,,,0.00,VWS V14.01,2013-09-04 19:52:00,
2013-09-04 14:57:00,84.6,28.4,30.12,NE,45,0.0,0.0,13,0.00,,,0.00,VWS V14.01,2013-09-04 19:57:00,
2013-09-04 15:02:00,84.6,28.4,30.12,East,90,0.0,0.0,13,0.00,,,0.00,VWS V14.01,2013-09-04 20:02:00,
2013-09-04 15:07:00,84.9,28.6,30.12,NNW,338,0.0,0.0,13,0.00,,,0.00,VWS V14.01,2013-09-04 20:07:00,
2013-09-04 15:12:00,85.1,28.8,30.12,ENE,68,0.0,0.0,13,0.00,,,0.00,VWS V14.01,2013-09-04 20:12:00,
2013-09-04 15:17:00,85.1,28.8,30.12,ENE,68,0.0,0.0,13,0.00,,,0.00,VWS V14.01,2013-09-04 20:17:00,
2013-09-04 15:22:00,85.1,28.8,30.12,ENE,68,5.8,5.8,13,0.00,,,0.00,VWS V14.01,2013-09-04 20:22:00,
2013-09-04 15:27:00,85.1,28.8,30.12,NNW,338,0.0,0.0,13,0.00,,,0.00,VWS V14.01,2013-09-04 20:27:00,
2013-09-04 15:32:00,85.3,28.9,30.12,ENE,68,0.0,0.0,13,0.00,,,0.00,VWS V14.01,2013-09-04 20:32:00,
2013-09-04 15:37:00,85.1,28.8,30.12,ENE,68,0.0,0.0,13,0.00,,,0.00,VWS V14.01,2013-09-04 20:37:00,
2013-09-04 15:42:00,85.1,28.8,30.12,NE,45,4.0,4.0,13,0.00,,,0.00,VWS V14.01,2013-09-04 20:42:00,
2013-09-04 15:47:00,85.1,28.8,30.12,East,90,0.0,0.0,13,0.00,,,0.00,VWS V14.01,2013-09-04 20:47:00,
2013-09-04 15:52:00,84.9,33.8,30.12,ESE,112,0.0,2.7,16,0.00,,,0.00,VWS V14.01,2013-09-04 20:52:00,
2013-09-04 15:57:00,84.7,33.6,30.12,East,90,4.0,4.0,16,0.00,,,0.00,VWS V14.01,2013-09-04 20:57:00,
2013-09-04 16:02:00,84.6,33.5,30.12,NE,45,2.7,2.7,16,0.00,,,0.00,VWS V14.01,2013-09-04 21:02:00,
2013-09-04 16:07:00,84.7,33.6,30.12,ENE,68,3.6,4.0,16,0.00,,,0.00,VWS V14.01,2013-09-04 21:07:00,
2013-09-04 16:12:00,84.6,33.5,30.12,ENE,68,0.0,0.0,16,0.00,,,0.00,VWS V14.01,2013-09-04 21:12:00,
2013-09-04 16:17:00,84.7,33.6,30.12,ENE,68,0.0,0.0,16,0.00,,,0.00,VWS V14.01,2013-09-04 21:17:00,
2013-09-04 16:22:00,84.6,33.5,30.09,ENE,68,0.0,0.0,16,0.00,,,0.00,VWS V14.01,2013-09-04 21:22:00,
2013-09-04 16:27:00,84.6,33.5,30.09,NW,315,0.0,2.2,16,0.00,,,0.00,VWS V14.01,2013-09-04 21:27:00,
2013-09-04 16:32:00,84.6,33.5,30.09,NE,45,0.0,0.0,16,0.00,,,0.00,VWS V14.01,2013-09-04 21:32:00,
2013-09-04 16:37:00,84.4,33.3,30.09,NE,45,0.0,0.0,16,0.00,,,0.00,VWS V14.01,2013-09-04 21:37:00,
2013-09-04 16:42:00,84.4,33.3,30.09,NE,45,0.0,0.0,16,0.00,,,0.00,VWS V14.01,2013-09-04 21:42:00,
2013-09-04 16:47:00,84.6,33.5,30.09,NE,45,0.0,0.0,16,0.00,,,0.00,VWS V14.01,2013-09-04 21:47:00,
2013-09-04 16:52:00,84.7,28.5,30.09,NE,45,0.0,0.0,13,0.00,,,0.00,VWS V14.01,2013-09-04 21:52:00,
2013-09-04 16:57:00,84.9,28.6,30.09,ENE,68,0.0,0.0,13,0.00,,,0.00,VWS V14.01,2013-09-04 21:57:00,
2013-09-04 17:02:00,85.3,34.1,30.09,ENE,68,0.0,0.0,16,0.00,,,0.00,VWS V14.01,2013-09-04 22:02:00,
2013-09-04 17:07:00,85.1,28.8,30.09,NNE,22,0.0,0.0,13,0.00,,,0.00,VWS V14.01,2013-09-04 22:07:00,
2013-09-04 17:12:00,85.3,28.9,30.09,NNE,22,0.0,0.0,13,0.00,,,0.00,VWS V14.01,2013-09-04 22:12:00,
2013-09-04 17:17:00,85.1,28.8,30.09,NNE,22,0.0,0.0,13,0.00,,,0.00,VWS V14.01,2013-09-04 22:17:00,
2013-09-04 17:22:00,85.5,29.1,30.09,NNE,22,0.0,0.0,13,0.00,,,0.00,VWS V14.01,2013-09-04 22:22:00,
2013-09-04 17:27:00,85.6,29.2,30.09,NNE,22,0.0,0.0,13,0.00,,,0.00,VWS V14.01,2013-09-04 22:27:00,
2013-09-04 17:32:00,85.6,29.2,30.09,NNE,22,0.0,0.0,13,0.00,,,0.00,VWS V14.01,2013-09-04 22:32:00,
2013-09-04 17:37:00,85.3,28.9,30.09,NE,45,0.0,0.0,13,0.00,,,0.00,VWS V14.01,2013-09-04 22:37:00,
2013-09-04 17:42:00,85.1,28.8,30.09,NE,45,0.0,0.0,13,0.00,,,0.00,VWS V14.01,2013-09-04 22:42:00,
2013-09-04 17:47:00,84.9,28.6,30.09,NE,45,0.0,0.0,13,0.00,,,0.00,VWS V14.01,2013-09-04 22:47:00,
2013-09-04 17:52:00,84.6,28.4,30.09,NE,45,0.0,0.0,13,0.00,,,0.00,VWS V14.01,2013-09-04 22:52:00,
2013-09-04 17:57:00,84.4,28.2,30.09,NE,45,0.0,0.0,13,0.00,,,0.00,VWS V14.01,2013-09-04 22:57:00,
2013-09-04 18:02:00,84.2,28.1,30.09,NE,45,0.0,0.0,13,0.00,,,0.00,VWS V14.01,2013-09-04 23:02:00,
2013-09-04 18:07:00,84.2,28.1,30.09,NE,45,0.0,0.0,13,0.00,,,0.00,VWS V14.01,2013-09-04 23:07:00,
2013-09-04 18:12:00,84.2,28.1,30.09,NE,45,0.0,0.0,13,0.00,,,0.00,VWS V14.01,2013-09-04 23:12:00,
2013-09-04 18:17:00,84.2,28.1,30.09,NE,45,0.0,0.0,13,0.00,,,0.00,VWS V14.01,2013-09-04 23:17:00,
2013-09-04 18:22:00,84.2,28.1,30.09,NE,45,0.0,0.0,13,0.00,,,0.00,VWS V14.01,2013-09-04 23:22:00,
2013-09-04 18:26:00,83.8,32.9,30.09,NE,45,0.0,0.0,16,0.00,,,0.00,VWS V14.01,2013-09-04 23:26:00,
2013-09-04 18:31:00,83.7,32.8,30.09,NE,45,0.0,0.0,16,0.00,,,0.00,VWS V14.01,2013-09-04 23:31:00,
2013-09-04 18:36:00,83.5,32.6,30.09,NE,45,0.0,0.0,16,0.00,,,0.00,VWS V14.01,2013-09-04 23:36:00,
2013-09-04 18:41:00,82.9,32.2,30.09,NE,45,0.0,0.0,16,0.00,,,0.00,VWS V14.01,2013-09-04 23:41:00,
2013-09-04 18:46:00,82.8,32.0,30.09,NE,45,0.0,0.0,16,0.00,,,0.00,VWS V14.01,2013-09-04 23:46:00,
2013-09-04 18:51:00,82.2,35.9,30.09,NE,45,0.0,0.0,19,0.00,,,0.00,VWS V14.01,2013-09-04 23:51:00,
2013-09-04 18:56:00,82.0,35.8,30.09,NE,45,0.0,0.0,19,0.00,,,0.00,VWS V14.01,2013-09-04 23:56:00,
2013-09-04 19:01:00,82.0,37.0,30.09,NE,45,0.0,0.0,20,0.00,,,0.00,VWS V14.01,2013-09-05 00:01:00,
2013-09-04 19:06:00,81.5,36.6,30.09,NE,45,0.0,0.0,20,0.00,,,0.00,VWS V14.01,2013-09-05 00:06:00,
2013-09-04 19:11:00,80.8,38.4,30.09,NE,45,0.0,0.0,22,0.00,,,0.00,VWS V14.01,2013-09-05 00:11:00,
2013-09-04 19:16:00,80.1,41.1,30.09,NE,45,0.0,0.0,25,0.00,,,0.00,VWS V14.01,2013-09-05 00:16:00,
2013-09-04 19:21:00,79.7,39.8,30.09,NE,45,0.0,0.0,24,0.00,,,0.00,VWS V14.01,2013-09-05 00:21:00,
2013-09-04 19:26:00,79.0,41.2,30.09,NE,45,0.0,0.0,26,0.00,,,0.00,VWS V14.01,2013-09-05 00:26:00,
2013-09-04 19:31:00,78.4,41.7,30.09,NE,45,0.0,0.0,27,0.00,,,0.00,VWS V14.01,2013-09-05 00:31:00,
2013-09-04 19:36:00,77.9,44.0,30.12,NE,45,0.0,0.0,30,0.00,,,0.00,VWS V14.01,2013-09-05 00:36:00,
2013-09-04 19:41:00,77.4,43.5,30.12,NE,45,0.0,0.0,30,0.00,,,0.00,VWS V14.01,2013-09-05 00:41:00,
2013-09-04 19:46:00,76.8,43.9,30.12,NE,45,0.0,0.0,31,0.00,,,0.00,VWS V14.01,2013-09-05 00:46:00,
2013-09-04 19:51:00,76.3,44.3,30.09,NE,45,0.0,0.0,32,0.00,,,0.00,VWS V14.01,2013-09-05 00:51:00,
2013-09-04 19:56:00,75.7,44.6,30.09,NE,45,0.0,0.0,33,0.00,,,0.00,VWS V14.01,2013-09-05 00:56:00,
2013-09-04 20:01:00,75.2,44.9,30.09,NE,45,0.0,0.0,34,0.00,,,0.00,VWS V14.01,2013-09-05 01:01:00,
2013-09-04 20:06:00,74.8,46.1,30.09,NE,45,0.0,0.0,36,0.00,,,0.00,VWS V14.01,2013-09-05 01:06:00,
2013-09-04 20:11:00,74.7,46.0,30.09,NE,45,0.0,0.0,36,0.00,,,0.00,VWS V14.01,2013-09-05 01:11:00,
2013-09-04 20:16:00,74.5,45.1,30.09,NE,45,0.0,0.0,35,0.00,,,0.00,VWS V14.01,2013-09-05 01:16:00,
2013-09-04 20:21:00,74.3,45.7,30.09,NE,45,0.0,0.0,36,0.00,,,0.00,VWS V14.01,2013-09-05 01:21:00,
2013-09-04 20:26:00,73.9,46.0,30.09,NE,45,0.0,0.0,37,0.00,,,0.00,VWS V14.01,2013-09-05 01:26:00,
2013-09-04 20:31:00,73.6,46.4,30.09,NE,45,0.0,0.0,38,0.00,,,0.00,VWS V14.01,2013-09-05 01:31:00,
2013-09-04 20:36:00,73.2,46.1,30.12,NE,45,0.0,0.0,38,0.00,,,0.00,VWS V14.01,2013-09-05 01:36:00,
2013-09-04 20:41:00,73.0,45.2,30.12,NE,45,0.0,0.0,37,0.00,,,0.00,VWS V14.01,2013-09-05 01:41:00,
2013-09-04 20:46:00,73.0,44.5,30.12,NE,45,0.0,0.0,36,0.00,,,0.00,VWS V14.01,2013-09-05 01:46:00,
2013-09-04 20:51:00,73.2,43.2,30.12,NE,45,0.0,0.0,34,0.00,,,0.00,VWS V14.01,2013-09-05 01:51:00,
2013-09-04 20:56:00,73.4,42.6,30.12,NE,45,0.0,0.0,33,0.00,,,0.00,VWS V14.01,2013-09-05 01:56:00,
2013-09-04 21:01:00,73.6,42.7,30.12,NE,45,0.0,0.0,33,0.00,,,0.00,VWS V14.01,2013-09-05 02:01:00,
2013-09-04 21:06:00,73.6,42.7,30.12,NE,45,0.0,0.0,33,0.00,,,0.00,VWS V14.01,2013-09-05 02:06:00,
2013-09-04 21:11:00,73.4,42.6,30.12,NE,45,0.0,0.0,33,0.00,,,0.00,VWS V14.01,2013-09-05 02:11:00,
2013-09-04 21:16:00,73.4,42.6,30.12,NE,45,0.0,0.0,33,0.00,,,0.00,VWS V14.01,2013-09-05 02:16:00,
2013-09-04 21:21:00,73.2,42.4,30.12,NE,45,0.0,0.0,33,0.00,,,0.00,VWS V14.01,2013-09-05 02:21:00,
2013-09-04 21:26:00,73.0,42.3,30.12,NE,45,0.0,0.0,33,0.00,,,0.00,VWS V14.01,2013-09-05 02:26:00,
2013-09-04 21:31:00,72.9,42.1,30.12,NE,45,0.0,0.0,33,0.00,,,0.00,VWS V14.01,2013-09-05 02:31:00,
2013-09-04 21:36:00,72.9,42.1,30.12,NE,45,0.0,0.0,33,0.00,,,0.00,VWS V14.01,2013-09-05 02:36:00,
2013-09-04 21:41:00,72.9,42.1,30.12,NE,45,0.0,0.0,33,0.00,,,0.00,VWS V14.01,2013-09-05 02:41:00,
2013-09-04 21:46:00,72.9,41.3,30.12,NE,45,0.0,0.0,32,0.00,,,0.00,VWS V14.01,2013-09-05 02:46:00,
2013-09-04 21:51:00,72.9,41.3,30.12,NE,45,0.0,0.0,32,0.00,,,0.00,VWS V14.01,2013-09-05 02:51:00,
2013-09-04 21:56:00,72.7,41.2,30.12,NE,45,0.0,0.0,32,0.00,,,0.00,VWS V14.01,2013-09-05 02:56:00,
2013-09-04 22:01:00,72.5,41.8,30.12,NE,45,0.0,0.0,33,0.00,,,0.00,VWS V14.01,2013-09-05 03:01:00,
2013-09-04 22:06:00,72.0,41.3,30.12,NE,45,0.0,0.0,33,0.00,,,0.00,VWS V14.01,2013-09-05 03:06:00,
2013-09-04 22:11:00,71.4,41.6,30.12,NE,45,0.0,0.0,34,0.00,,,0.00,VWS V14.01,2013-09-05 03:11:00,
2013-09-04 22:16:00,71.1,42.0,30.12,NE,45,0.0,0.0,35,0.00,,,0.00,VWS V14.01,2013-09-05 03:16:00,
2013-09-04 22:21:00,70.7,42.5,30.12,NE,45,0.0,0.0,36,0.00,,,0.00,VWS V14.01,2013-09-05 03:21:00,
2013-09-04 22:26:00,70.5,42.3,30.12,NE,45,0.0,0.0,36,0.00,,,0.00,VWS V14.01,2013-09-05 03:26:00,
2013-09-04 22:31:00,70.3,42.2,30.12,NE,45,0.0,0.0,36,0.00,,,0.00,VWS V14.01,2013-09-05 03:31:00,
2013-09-04 22:36:00,70.2,42.7,30.12,NE,45,0.0,0.0,37,0.00,,,0.00,VWS V14.01,2013-09-05 03:36:00,
2013-09-04 22:41:00,70.0,42.5,30.12,NE,45,0.0,0.0,37,0.00,,,0.00,VWS V14.01,2013-09-05 03:41:00,
2013-09-04 22:46:00,70.0,42.5,30.12,NE,45,0.0,0.0,37,0.00,,,0.00,VWS V14.01,2013-09-05 03:46:00,
2013-09-04 22:51:00,70.0,41.8,30.12,NE,45,0.0,0.0,36,0.00,,,0.00,VWS V14.01,2013-09-05 03:51:00,
2013-09-04 22:56:00,70.2,42.0,30.12,NE,45,0.0,0.0,36,0.00,,,0.00,VWS V14.01,2013-09-05 03:56:00,
2013-09-04 23:01:00,70.2,42.7,30.12,NE,45,0.0,0.0,37,0.00,,,0.00,VWS V14.01,2013-09-05 04:01:00,
2013-09-04 23:06:00,69.6,44.9,30.12,NE,45,0.0,0.0,41,0.00,,,0.00,VWS V14.01,2013-09-05 04:06:00,
2013-09-04 23:11:00,69.3,44.6,30.12,NE,45,0.0,0.0,41,0.00,,,0.00,VWS V14.01,2013-09-05 04:11:00,
2013-09-04 23:16:00,68.9,44.2,30.12,NE,45,0.0,0.0,41,0.00,,,0.00,VWS V14.01,2013-09-05 04:16:00,
2013-09-04 23:24:00,68.9,44.9,30.12,NE,45,0.0,0.0,42,0.00,,,0.00,VWS V14.01,2013-09-05 04:24:00,
2013-09-04 23:29:00,68.4,45.0,30.15,NE,45,0.0,0.0,43,0.00,,,0.00,VWS V14.01,2013-09-05 04:29:00,
2013-09-04 23:34:00,68.4,45.0,30.15,NE,45,0.0,0.0,43,0.00,,,0.00,VWS V14.01,2013-09-05 04:34:00,
2013-09-04 23:38:00,68.4,45.0,30.15,NE,45,0.0,0.0,43,0.00,,,0.00,VWS V14.01,2013-09-05 04:38:00,
2013-09-04 23:43:00,68.2,45.5,30.15,NE,45,0.0,0.0,44,0.00,,,0.00,VWS V14.01,2013-09-05 04:43:00,
2013-09-04 23:48:00,68.0,45.3,30.15,NE,45,0.0,0.0,44,0.00,,,0.00,VWS V14.01,2013-09-05 04:48:00,
2013-09-04 23:53:00,67.8,45.7,30.15,NE,45,0.0,0.0,45,0.00,,,0.00,VWS V14.01,2013-09-05 04:53:00,
2013-09-04 23:59:00,67.8,45.7,30.15,NE,45,0.0,0.0,45,0.00,,,0.00,VWS V14.01,2013-09-05 04:59:00,